Location: Peebles
(55.6412°N, 3.1714°W)
Time: 17:38:23
(UTC+01:00)

USA 238 DEB - Pass Details

Date: 23 January 2022
Orbit: 969 x 1243 km, 63.4° (Epoch: 04 May)

Event Time Altitude Azimuth Distance (km) Brightness Sun altitude
Rises 17:48:50 0° 231° (SW) 3,708 8.0 -11.0°
Reaches altitude 10° 17:51:20 10° 232° (SW) 2,786 7.1 -11.3°
Maximum altitude 17:57:56 86° 323° (NW) 1,064 3.7 -12.2°
Enters shadow 18:04:06 14° 52° (NE) 2,661 5.2 -13.0°
